Wind_Speed
43 42 41 41 40 39 38 38 37 37 37 37 38 38 38 38 39 38 37 38 38 38 38 38 38 38 37 37 37 38 39 40 40 40 40 40 40 39 39 39 39 38 38
44 43 42 41 40 39 39 38 38 38 37 37 38 38 38 38 38 37 37 38 38 39 39 39 38 38 38 38 38 39 40 40 40 41 41 41 41 41 41 40 40 40 40
44 44 42 41 40 40 39 39 38 38 38 38 38 38 38 38 38 37 37 37 38 38 39 38 39 39 39 39 39 40 40 40 41 42 42 42 42 42 42 41 41 42 41
44 44 43 42 41 40 40 40 39 38 38 37 38 38 38 38 37 37 37 37 37 38 38 38 39 39 39 40 40 41 41 41 41 42 43 43 43 43 43 43 43 43 43
41 42 43 42 41 40 40 40 39 38 37 37 38 38 38 38 38 38 38 37 37 37 38 38 38 38 38 39 40 40 41 42 43 43 44 44 45 44 44 44 44 44 45
40 40 41 42 41 40 40 40 39 38 38 38 38 38 38 38 38 37 38 37 37 37 38 38 38 38 38 38 39 40 41 42 43 44 45 46 46 45 46 46 46 46 46
38 40 40 41 41 41 41 40 40 39 39 38 38 38 38 38 38 37 38 38 38 37 38 38 38 38 39 39 39 39 40 42 43 44 46 47 47 47 47 48 48 47 47
37 38 39 40 41 41 41 41 40 40 39 39 39 39 39 39 38 38 38 39 39 38 39 39 39 39 40 40 40 40 41 42 43 44 45 46 48 48 48 48 49 49 49
36 37 38 38 39 40 41 41 40 40 40 40 40 39 39 40 39 39 39 39 39 39 40 40 40 40 40 41 41 41 41 42 44 44 45 46 47 49 49 49 50 51 51
37 37 37 37 38 39 40 40 40 41 41 41 41 40 40 40 40 40 39 39 39 39 39 40 40 41 41 41 41 41 42 43 43 44 45 45 46 47 48 49 50 50 51
36 37 37 37 38 38 39 40 40 40 41 40 41 41 41 41 41 40 40 40 40 40 40 40 41 41 41 41 41 40 41 42 42 43 43 44 45 46 47 48 49 49 50
36 37 37 37 38 37 38 39 39 40 40 39 40 41 41 41 41 40 39 40 40 39 39 39 40 40 40 39 39 39 39 39 40 41 42 43 44 45 47 48 49 50 50
35 36 38 37 37 37 37 38 38 38 39 39 39 39 39 39 39 39 39 38 39 39 39 39 39 39 39 39 38 38 38 38 39 40 42 42 44 45 46 47 49 49 50
33 34 36 36 36 36 37 38 38 39 39 39 39 39 39 39 39 39 39 38 39 39 39 39 39 39 39 39 39 39 38 39 39 40 41 42 43 44 45 47 48 48 49
33 33 34 36 36 37 37 38 38 39 38 38 38 39 39 39 39 38 38 38 38 38 39 38 38 38 39 39 39 39 39 39 39 40 41 41 43 44 45 45 45 46 46
32 32 32 34 35 36 36 37 37 37 37 37 37 37 37 37 37 37 37 37 37 37 38 38 37 38 38 38 38 39 39 39 39 40 41 42 42 43 43 42 43 43 44
31 31 32 33 34 34 34 35 36 35 36 36 37 36 36 36 37 36 36 36 36 36 37 36 37 37 38 38 38 38 39 39 40 40 40 40 41 42 41 41 42 42 43
31 31 31 31 32 33 34 34 35 35 35 36 36 37 36 36 37 36 36 36 36 36 36 36 36 37 37 38 38 38 37 38 38 39 40 40 40 41 41 41 41 41 42
31 31 31 31 31 32 32 32 32 33 35 35 35 36 36 36 36 36 36 36 36 36 36 37 37 37 37 38 38 37 37 37 38 38 39 40 40 40 40 41 41 41 41
31 32 32 32 32 32 32 32 33 33 33 34 34 35 36 36 36 36 36 36 36 36 36 36 36 36 36 37 37 37 37 37 38 38 39 39 39 40 40 40 40 41 40
30 30 31 31 32 33 33 32 33 33 33 33 34 34 34 35 36 36 35 35 35 36 35 36 36 36 36 36 36 36 36 37 38 38 38 38 38 39 39 39 39 39 40
28 28 29 29 30 32 32 32 32 32 33 33 33 32 32 33 35 35 35 35 35 35 35 35 36 36 36 36 36 36 37 37 37 37 37 38 38 38 38 39 39 40 40
27 27 28 29 29 30 30 31 31 31 31 32 32 33 33 33 34 34 34 34 34 35 35 35 35 35 35 35 35 36 37 36 36 36 36 37 37 37 38 39 39 40 40
28 28 27 27 28 29 29 29 30 30 30 31 31 32 32 33 33 32 32 32 33 33 34 34 34 34 35 35 35 35 35 35 35 35 35 36 36 37 38 38 38 38 38
26 27 26 26 26 27 27 28 29 29 29 29 30 31 32 32 32 32 32 32 32 31 32 32 32 33 33 34 34 34 35 35 35 36 35 36 36 37 37 37 37 37 36
25 25 26 26 26 26 26 26 27 27 28 29 29 30 30 30 31 30 30 30 30 30 31 31 32 32 33 33 34 35 35 36 36 36 36 37 37 37 37 36 36 36 36
Wind_Direction
248 249 250 250 250 249 248 247 246 244 245 246 247 247 247 247 246 247 248 248 249 249 251 253 254 253 254 255 256 256 257 258 259 259 258 257 258 259 260 262 263 262 264
248 248 249 249 249 248 246 246 246 245 245 246 247 248 248 248 246 248 248 248 249 251 252 253 255 255 255 255 256 257 258 258 259 258 258 257 258 259 260 260 262 263 264
248 248 247 246 247 247 246 246 246 245 246 246 247 248 247 248 247 248 248 248 249 251 253 255 256 257 257 257 258 258 258 258 259 258 258 258 258 259 260 260 261 263 264
248 246 245 244 245 245 245 245 246 245 245 246 247 246 246 248 248 249 249 249 250 252 254 256 257 259 260 259 259 259 259 259 259 258 258 258 258 259 259 260 260 262 263
247 246 244 243 242 243 243 244 245 244 244 246 246 247 247 248 248 249 249 249 251 253 254 256 258 260 261 261 261 261 261 260 260 259 258 258 259 260 260 261 262 263 264
246 245 243 241 241 241 241 242 244 244 244 245 246 247 247 248 248 249 250 250 251 253 255 257 259 260 261 262 262 262 261 261 261 259 259 258 259 259 260 261 262 263 264
245 244 242 241 240 240 240 241 243 244 244 245 246 246 246 246 247 249 250 251 252 253 255 257 259 260 261 262 262 262 263 262 261 260 260 259 260 259 261 262 263 264 264
244 244 242 241 241 240 240 240 242 242 243 244 245 245 246 247 248 250 251 252 253 254 256 258 259 260 261 262 262 263 264 263 262 262 261 260 260 260 261 263 264 265 266
244 243 243 242 242 241 241 241 242 242 242 243 245 245 246 247 249 251 252 253 253 255 256 258 260 261 262 262 262 263 264 263 262 263 263 262 262 262 262 264 265 266 266
243 243 242 241 241 241 240 240 242 242 242 243 244 244 245 247 249 251 251 252 254 255 256 258 260 261 262 263 263 264 264 264 263 263 264 264 264 263 264 264 265 266 267
243 244 243 242 242 241 240 240 241 242 242 244 244 244 245 247 249 250 251 252 254 256 258 260 261 262 263 263 264 266 265 264 264 265 266 266 266 264 265 265 266 266 267
243 242 242 244 243 241 240 241 242 242 243 245 246 246 246 247 249 250 251 253 254 256 258 260 262 263 263 263 265 266 266 265 265 266 267 268 268 267 267 267 266 267 268
245 243 242 243 243 241 240 240 241 242 243 245 246 247 247 247 248 249 251 252 254 256 258 260 262 262 263 263 264 266 267 266 266 267 268 270 270 270 270 269 269 269 269
243 243 242 242 241 240 239 239 239 240 243 244 245 246 247 248 249 250 251 252 254 257 259 260 261 262 263 264 264 265 266 267 268 269 270 272 272 272 271 271 270 270 270
242 242 243 242 240 239 239 239 239 239 241 242 244 245 247 247 248 250 251 253 256 258 259 260 261 262 263 263 264 265 266 268 269 271 272 273 273 272 271 271 271 270 271
244 242 240 241 240 238 239 239 239 239 240 241 243 245 246 247 249 251 252 254 257 258 259 259 261 262 263 264 265 267 267 269 270 271 271 272 272 271 270 270 271 272 273
243 240 239 239 240 240 241 239 238 240 241 242 243 245 247 248 249 250 252 255 257 259 259 260 261 263 264 264 265 267 269 270 271 271 271 271 271 271 271 271 272 273 273
242 242 241 241 240 241 243 242 242 242 243 244 245 246 248 249 250 251 253 255 257 258 259 259 261 262 262 263 265 267 268 270 270 270 270 271 272 272 272 273 273 273 274
242 243 243 243 242 242 242 243 245 245 245 244 245 246 247 248 250 252 254 255 256 258 258 258 260 262 262 264 266 268 269 270 270 271 272 272 272 273 274 274 275 276 276
244 243 244 244 242 241 243 244 245 246 247 247 246 247 248 249 250 251 254 254 255 257 257 257 259 261 263 264 266 268 269 270 271 271 272 272 273 274 275 275 276 277 278
242 242 242 243 242 241 243 244 246 247 247 248 249 250 250 251 251 252 254 255 255 257 257 258 259 260 262 264 266 268 270 271 271 271 272 272 273 274 275 275 276 277 278
240 239 240 241 242 242 243 244 246 246 246 247 249 249 250 251 253 254 255 255 257 257 258 260 261 262 263 266 267 270 271 272 272 272 272 273 274 275 276 276 276 277 278
240 240 241 242 243 244 244 244 245 246 247 249 250 250 250 251 253 254 255 256 258 258 259 261 262 263 265 267 268 270 271 271 271 271 272 274 275 275 276 277 277 278 279
239 240 242 243 244 245 246 246 246 247 248 249 249 250 251 252 253 254 255 257 257 258 259 261 262 262 265 267 267 268 269 269 270 271 273 274 275 276 277 278 278 279 279
241 240 241 242 244 245 245 246 247 248 248 249 250 250 251 252 253 255 256 258 259 259 260 261 261 262 263 265 266 267 267 269 271 272 272 274 276 277 277 277 278 278 279
245 244 244 244 244 244 245 246 247 248 249 249 250 251 250 251 253 254 255 257 258 259 260 261 262 263 265 266 267 267 268 269 270 271 273 275 276 277 276 276 277 279 279
Height
5710 5712 5714 5716 5718 5721 5723 5726 5728 5730 5732 5734 5736 5738 5740 5742 5745 5747 5750 5752 5754 5756 5758 5760 5761 5763 5764 5765 5766 5767 5768 5769 5770 5772 5773 5774 5776 5777 5778 5779 5780 5781 5782
5698 5701 5703 5705 5708 5711 5713 5716 5718 5721 5723 5725 5728 5730 5732 5733 5736 5738 5741 5743 5745 5747 5749 5751 5752 5753 5755 5756 5756 5757 5758 5759 5760 5762 5763 5765 5767 5768 5769 5769 5770 5772 5772
5686 5689 5692 5695 5698 5700 5703 5706 5708 5711 5713 5716 5718 5720 5722 5724 5727 5729 5732 5734 5736 5737 5739 5741 5742 5744 5745 5745 5746 5747 5748 5749 5750 5751 5753 5755 5757 5758 5759 5760 5761 5762 5763
5674 5677 5681 5684 5687 5690 5693 5696 5698 5701 5703 5706 5708 5711 5714 5716 5718 5720 5723 5724 5726 5728 5730 5731 5732 5734 5734 5735 5736 5737 5738 5739 5740 5741 5742 5744 5746 5748 5749 5750 5751 5751 5752
5663 5666 5670 5673 5677 5680 5683 5686 5688 5691 5694 5697 5700 5702 5705 5707 5709 5711 5713 5715 5717 5719 5720 5722 5723 5724 5724 5725 5726 5726 5727 5728 5729 5731 5732 5733 5735 5736 5738 5740 5741 5742 5742
5653 5656 5659 5663 5666 5669 5673 5676 5679 5682 5685 5688 5690 5693 5695 5698 5700 5702 5704 5706 5708 5710 5711 5712 5713 5714 5715 5715 5716 5716 5717 5717 5718 5720 5721 5723 5724 5726 5727 5729 5730 5731 5732
5643 5646 5649 5652 5656 5659 5663 5666 5669 5672 5675 5678 5681 5684 5686 5689 5691 5693 5695 5697 5699 5701 5702 5703 5704 5705 5705 5705 5706 5706 5707 5707 5708 5709 5710 5712 5713 5715 5716 5717 5718 5720 5721
5633 5636 5639 5643 5646 5649 5653 5656 5659 5663 5665 5668 5671 5674 5677 5679 5682 5684 5686 5688 5690 5691 5693 5694 5694 5695 5695 5696 5696 5697 5697 5697 5698 5698 5699 5700 5702 5703 5704 5706 5707 5707 5709
5622 5626 5630 5633 5636 5639 5643 5646 5649 5653 5656 5659 5662 5664 5667 5670 5672 5675 5676 5678 5680 5682 5683 5684 5685 5685 5685 5686 5686 5686 5686 5687 5687 5688 5688 5689 5690 5691 5693 5694 5694 5695 5696
5613 5616 5620 5623 5626 5629 5633 5636 5640 5643 5646 5649 5652 5655 5658 5660 5663 5664 5667 5669 5670 5672 5673 5674 5675 5675 5675 5675 5676 5676 5676 5676 5677 5677 5677 5678 5679 5680 5680 5681 5682 5682 5683
5604 5607 5610 5613 5617 5620 5623 5627 5630 5633 5636 5640 5642 5645 5648 5650 5652 5655 5657 5659 5660 5662 5663 5664 5664 5665 5665 5665 5665 5666 5666 5666 5666 5667 5667 5667 5668 5668 5668 5669 5669 5670 5670
5594 5598 5601 5604 5607 5610 5614 5617 5620 5623 5627 5630 5633 5635 5638 5640 5643 5645 5647 5649 5650 5652 5653 5654 5654 5654 5655 5655 5655 5656 5655 5656 5656 5657 5657 5657 5656 5657 5657 5657 5657 5657 5657
5585 5588 5591 5594 5597 5600 5604 5607 5610 5614 5617 5620 5623 5625 5628 5631 5633 5635 5637 5639 5640 5642 5643 5643 5644 5644 5645 5645 5645 5646 5646 5646 5646 5646 5646 5646 5646 5646 5645 5645 5645 5645 5644
5576 5578 5581 5585 5588 5591 5594 5598 5601 5604 5607 5610 5613 5616 5618 5621 5623 5625 5627 5629 5630 5631 5632 5633 5634 5634 5634 5635 5635 5636 5636 5636 5636 5636 5636 5635 5635 5634 5634 5633 5633 5632 5632
5566 5570 5572 5575 5578 5581 5584 5588 5591 5594 5597 5600 5603 5605 5608 5610 5613 5615 5617 5619 5620 5621 5622 5623 5623 5624 5624 5625 5625 5625 5625 5625 5625 5625 5625 5624 5624 5623 5622 5621 5621 5621 5620
5557 5560 5563 5565 5568 5571 5575 5578 5581 5585 5588 5591 5593 5596 5598 5601 5603 5605 5607 5608 5610 5611 5612 5612 5613 5614 5614 5615 5615 5615 5615 5615 5615 5614 5614 5613 5612 5611 5611 5610 5610 5609 5609
5548 5551 5554 5557 5559 5562 5565 5568 5571 5575 5578 5581 5584 5587 5589 5591 5594 5596 5597 5599 5600 5601 5602 5602 5603 5604 5604 5605 5605 5605 5605 5604 5604 5604 5603 5603 5602 5601 5600 5600 5599 5599 5597
5540 5543 5545 5548 5551 5553 5556 5559 5562 5565 5568 5571 5574 5577 5579 5582 5584 5586 5588 5589 5589 5590 5591 5592 5593 5594 5594 5594 5595 5595 5595 5594 5594 5593 5593 5592 5591 5591 5590 5589 5589 5588 5587
5532 5534 5537 5540 5542 5545 5548 5551 5554 5556 5559 5562 5565 5567 5570 5572 5574 5576 5578 5579 5580 5580 5581 5582 5583 5583 5584 5584 5585 5585 5585 5584 5584 5583 5583 5582 5581 5580 5579 5579 5578 5577 5575
5524 5526 5529 5531 5534 5537 5539 5542 5545 5548 5550 5553 5555 5558 5560 5562 5564 5566 5567 5568 5569 5570 5571 5572 5573 5573 5574 5574 5574 5575 5575 5575 5574 5573 5572 5572 5571 5570 5569 5568 5567 5566 5565
5515 5518 5520 5523 5525 5528 5531 5533 5536 5538 5541 5543 5546 5548 5551 5552 5554 5556 5557 5559 5560 5560 5561 5562 5563 5564 5564 5565 5565 5565 5565 5564 5564 5563 5562 5562 5561 5560 5559 5558 5557 5556 5554
5507 5509 5512 5514 5517 5519 5522 5525 5527 5529 5532 5534 5537 5539 5541 5543 5545 5546 5547 5549 5550 5551 5552 5552 5553 5554 5554 5555 5555 5555 5555 5554 5554 5553 5552 5551 5551 5550 5548 5547 5546 5545 5543
5500 5502 5504 5506 5508 5511 5513 5516 5519 5521 5523 5525 5528 5530 5532 5534 5535 5536 5538 5539 5540 5541 5542 5543 5543 5544 5544 5544 5545 5545 5545 5544 5544 5543 5542 5541 5540 5539 5538 5537 5535 5534 5532
5492 5495 5497 5499 5501 5503 5505 5508 5510 5512 5514 5516 5518 5520 5522 5524 5526 5527 5528 5529 5530 5531 5532 5533 5534 5534 5535 5535 5535 5535 5535 5534 5534 5533 5532 5532 5531 5530 5528 5527 5525 5524 5522
5486 5487 5489 5492 5494 5495 5497 5500 5502 5504 5505 5507 5509 5511 5513 5515 5516 5517 5519 5520 5521 5521 5523 5523 5524 5525 5525 5525 5525 5525 5525 5525 5524 5523 5523 5522 5521 5520 5518 5517 5515 5513 5512
5479 5480 5482 5484 5486 5488 5490 5492 5494 5496 5498 5499 5501 5502 5504 5506 5507 5508 5510 5510 5512 5512 5513 5514 5515 5515 5515 5515 5515 5515 5515 5515 5514 5514 5513 5512 5511 5509 5508 5507 5505 5503 5502